1486692000.32,47113,10.19,73794.0,-8.07,-9.05,-9.01,0,*5B
1486692001.61,47114,10.13,73798.8,-8.11,-9.11,-9.11,0,*5F
1486692002.83,47115,10.19,73798.3,-8.11,-9.19,-9.19,0,*5E
1486692004.05,47116,10.19,73798.0,-8.11,-9.23,-9.19,0,*54
1486692005.28,47117,10.13,73796.8,-8.11,-9.31,-9.19,0,*56
1486692006.5,47118,10.13,73796.3,-8.11,-9.23,-9.19,0,*5A
1486692007.76,47119,10.13,73800.8,-8.07,-9.15,-9.05,0,*54
1486692009.01,47120,10.19,73800.0,-8.11,-9.11,-9.05,0,*5D
1486692010.24,47121,10.19,73800.5,-8.11,-9.05,-8.97,0,*53
1486692011.47,47122,10.13,73798.3,-8.07,-9.01,-8.93,0,*57
1486692012.7,47123,10.13,73798.0,-8.11,-9.05,-9.05,0,*5B
1486692013.96,47124,10.19,73792.0,-8.11,-9.11,-9.05,0,*59
1486692015.21,47125,10.19,73796.0,-8.11,-9.11,-8.97,0,*52
1486692016.44,47126,10.13,73798.5,-8.11,-8.97,-9.05,0,*54
1486692017.69,47127,10.19,73798.5,-8.11,-9.11,-8.97,0,*50
1486692018.92,47128,10.13,73802.3,-8.11,-9.31,-9.23,0,*53
1486692020.14,47129,10.19,73804.0,-8.11,-9.31,-9.23,0,*52
1486692021.39,47130,10.13,73804.3,-8.11,-9.19,-9.11,0,*51
1486692022.67,47131,10.13,73802.3,-8.11,-9.11,-9.11,0,*58
1486692023.9,47132,10.19,73800.3,-8.11,-9.19,-9.19,0,*5B
1486692025.12,47133,10.19,73796.0,-8.11,-9.19,-9.19,0,*5A
1486692026.4,47134,10.19,73800.8,-8.11,-9.11,-9.11,0,*5D
1486692027.67,47135,10.13,73794.5,-8.07,-9.15,-9.01,0,*5E
1486692028.89,47136,10.19,73798.8,-8.11,-9.05,-9.05,0,*5F
1486692030.12,47137,10.13,73796.5,-8.11,-9.05,-8.97,0,*54
1486692031.34,47138,10.19,73798.3,-8.11,-8.97,-8.97,0,*51
1486692032.57,47139,10.13,73790.5,-8.11,-8.97,-8.97,0,*50
1486692033.82,47140,10.13,73792.0,-8.11,-9.11,-8.97,0,*51
1486692035.05,47141,10.13,73794.3,-8.11,-9.05,-8.97,0,*55
1486692036.31,47142,10.19,73802.3,-8.11,-9.11,-9.05,0,*59
1486692037.56,47143,10.13,73802.3,-8.11,-9.19,-9.11,0,*55
1486692038.82,47144,10.13,73802.0,-8.07,-9.15,-9.01,0,*58
1486692040.08,47145,10.13,73796.8,-8.11,-9.11,-8.97,0,*54
1486692041.31,47146,10.13,73792.5,-8.07,-9.05,-9.01,0,*5B
1486692042.56,47147,10.13,73788.8,-8.11,-9.19,-9.11,0,*51
1486692043.82,47148,10.13,73790.0,-8.13,-9.15,-9.11,0,*50
1486692045.05,47149,10.13,73798.3,-8.11,-9.05,-8.97,0,*5D
1486692046.28,47150,10.13,73792.5,-8.07,-9.05,-9.01,0,*5C
1486692047.54,47151,10.19,73800.5,-8.11,-9.11,-9.05,0,*5B
1486692048.76,47152,10.13,73796.8,-8.11,-9.05,-8.97,0,*57
1486692049.99,47153,10.13,73802.5,-8.11,-8.97,-8.97,0,*5C
1486692051.22,47154,10.19,73802.8,-8.07,-9.01,-9.01,0,*5C
1486692052.48,47155,10.13,73802.0,-8.11,-9.11,-9.05,0,*5F
1486692053.74,47156,10.13,73800.5,-8.07,-9.15,-9.05,0,*5F
1486692054.96,47157,10.13,73798.3,-8.11,-9.23,-9.19,0,*51
1486692056.21,47158,10.13,73796.5,-8.11,-9.23,-9.11,0,*56
1486692057.47,47159,10.13,73794.8,-8.11,-9.11,-8.97,0,*59
1486692058.73,47160,10.13,73786.8,-8.07,-9.15,-9.01,0,*5E
1486692059.98,47161,10.13,73790.5,-8.07,-9.19,-9.15,0,*56
1486692061.2,47162,10.13,73788.5,-8.11,-9.19,-9.19,0,*5E
1486692062.45,47163,10.13,73792.0,-8.07,-9.19,-9.15,0,*54
1486692063.71,47164,10.13,73792.3,-8.11,-9.37,-9.19,0,*54
1486692064.95,47165,10.13,73790.0,-8.11,-9.45,-9.23,0,*59
1486692066.2,47166,10.13,73786.3,-8.11,-9.37,-9.23,0,*5F
1486692067.43,47167,10.13,73788.8,-8.11,-9.23,-9.23,0,*5B
1486692068.65,47168,10.13,73788.3,-8.11,-9.23,-9.19,0,*5D
1486692069.87,47169,10.13,73792.8,-8.11,-9.31,-9.19,0,*5F
1486692071.12,47170,10.13,73790.0,-8.11,-9.23,-9.11,0,*5C
1486692072.38,47171,10.13,73788.8,-8.11,-9.19,-9.11,0,*54
1486692073.6,47172,10.13,73786.0,-8.11,-9.19,-8.97,0,*58
1486692074.89,47173,10.19,73786.8,-8.11,-9.11,-9.11,0,*5E
1486692076.11,47174,10.19,73780.0,-8.11,-8.97,-8.97,0,*59
1486692077.34,47175,10.13,73778.8,-8.11,-9.05,-9.05,0,*58
1486692078.57,47176,10.13,73776.3,-8.07,-9.01,-9.01,0,*5C
1486692079.84,47177,10.13,73778.5,-8.07,-9.15,-9.01,0,*58
1486692081.06,47178,10.19,73784.3,-8.11,-9.19,-9.19,0,*55
1486692082.29,47179,10.13,73782.0,-8.07,-9.19,-9.05,0,*5E
1486692083.51,47180,10.13,73780.5,-8.11,-9.31,-9.19,0,*58
1486692084.76,47181,10.13,73782.5,-8.11,-9.23,-9.11,0,*52
1486692086.01,47182,10.19,73782.0,-8.11,-9.19,-9.11,0,*58
1486692087.27,47183,10.13,73782.5,-8.11,-9.11,-9.05,0,*54
1486692088.53,47184,10.19,73796.5,-8.11,-9.11,-8.97,0,*59
1486692089.75,47185,10.13,73792.8,-8.11,-9.19,-9.19,0,*57
1486692090.97,47186,10.13,73794.3,-8.11,-9.23,-9.19,0,*5D
1486692092.2,47187,10.13,73798.8,-8.11,-9.19,-9.05,0,*58
1486692093.43,47188,10.13,73796.3,-8.11,-9.05,-8.97,0,*50
1486692094.69,47189,10.19,73808.0,-8.07,-9.15,-9.05,0,*5D
1486692095.94,47190,10.19,73806.8,-8.11,-9.19,-9.11,0,*5B
1486692097.17,47191,10.13,73802.8,-8.11,-9.19,-9.05,0,*5F
1486692098.42,47192,10.19,73800.3,-8.11,-9.19,-9.11,0,*59
1486692099.64,47193,10.19,73806.3,-8.11,-9.19,-9.05,0,*5D
1486692100.9,47194,10.13,73802.5,-8.11,-9.11,-8.97,0,*58
1486692102.13,47195,10.19,73806.5,-8.07,-9.05,-8.93,0,*5F
1486692103.38,47196,10.13,73808.5,-8.11,-9.11,-9.05,0,*50
1486692104.61,47197,10.13,73796.8,-8.11,-9.19,-9.05,0,*59
1486692105.87,47198,10.13,73798.5,-8.13,-9.15,-9.11,0,*5D
1486692107.12,47199,10.13,73796.8,-8.11,-9.11,-9.05,0,*5F
1486692108.38,47200,10.19,73808.0,-8.11,-9.11,-9.05,0,*5C
1486692109.6,47201,10.19,73804.5,-8.11,-9.31,-9.19,0,*52
1486692110.83,47202,10.19,73800.0,-8.11,-9.23,-9.23,0,*5B
1486692112.08,47203,10.19,73800.8,-8.11,-9.31,-9.11,0,*58
1486692113.33,47204,10.19,73802.0,-8.11,-9.23,-9.11,0,*5C
1486692114.59,47205,10.13,73804.8,-8.11,-9.11,-9.05,0,*59
1486692115.84,47206,10.13,73808.3,-8.11,-9.11,-8.97,0,*50
1486692117.07,47207,10.19,73814.5,-8.11,-8.97,-8.97,0,*5E
1486692118.29,47208,10.13,73806.8,-8.11,-9.05,-9.05,0,*51
1486692119.52,47209,10.19,73806.0,-8.11,-9.05,-9.05,0,*50
1486692120.78,47210,10.19,73808.0,-8.11,-9.11,-8.97,0,*57
1486692122.03,47211,10.13,73804.0,-8.11,-9.11,-8.97,0,*56
1486692123.29,47212,10.13,73806.0,-8.11,-9.11,-8.93,0,*51
1486692124.57,47213,10.19,73812.8,-8.11,-9.11,-9.11,0,*5B
1486692125.82,47214,10.19,73804.8,-8.11,-9.19,-9.11,0,*54
1486692127.07,47215,10.19,73802.0,-8.11,-9.23,-9.11,0,*5C
1486692128.33,47216,10.19,73806.8,-8.11,-9.19,-9.11,0,*56
1486692129.58,47217,10.19,73808.3,-8.11,-9.31,-9.11,0,*5D
1486692130.83,47218,10.19,73810.0,-8.11,-9.19,-9.11,0,*58
1486692132.06,47219,10.19,73810.8,-8.11,-9.23,-9.19,0,*58
1486692133.28,47220,10.19,73804.3,-8.11,-9.23,-9.23,0,*5B
1486692134.5,47221,10.19,73806.3,-8.13,-9.23,-9.15,0,*5D
1486692135.78,47222,10.13,73800.3,-8.11,-9.11,-9.11,0,*59
1486692137.04,47223,10.19,73802.0,-8.11,-9.19,-9.11,0,*50
1486692138.26,47224,10.13,73804.0,-8.11,-9.19,-9.05,0,*52
1486692139.52,47225,10.13,73802.3,-8.11,-9.23,-9.11,0,*5F
1486692140.77,47226,10.19,73806.3,-8.11,-9.23,-9.11,0,*5C
1486692141.99,47227,10.13,73800.3,-8.11,-9.19,-9.19,0,*5C
1486692143.24,47228,10.13,73794.3,-8.11,-9.19,-9.11,0,*5B
1486692144.47,47229,10.13,73800.0,-8.11,-9.31,-9.19,0,*58
1486692145.73,47230,10.19,73798.3,-8.07,-9.15,-9.05,0,*5C
1486692146.95,47231,10.13,73796.0,-8.11,-9.19,-8.97,0,*5C
1486692148.21,47232,10.13,73802.5,-8.11,-9.11,-8.97,0,*57
1486692149.43,47233,10.19,73802.3,-8.11,-8.97,-8.97,0,*59
1486692150.64,47234,10.13,73798.3,-8.13,-9.01,-9.01,0,*5C
1486692151.87,47235,10.13,73800.0,-8.11,-9.05,-8.97,0,*55
1486692153.09,47236,10.13,73794.3,-8.11,-8.97,-8.97,0,*5C
1486692154.32,47237,10.13,73792.3,-8.11,-8.97,-8.97,0,*5D
1486692155.54,47238,10.13,73788.8,-8.11,-8.97,-8.97,0,*52
1486692156.77,47239,10.19,73790.3,-8.11,-9.05,-8.97,0,*59
1486692158.0,47240,10.13,73790.8,-8.11,-9.05,-9.05,0,*5D
1486692159.25,47241,10.19,73790.0,-8.11,-9.11,-8.97,0,*53
1486692160.48,47242,10.13,73786.8,-8.11,-9.19,-8.97,0,*58
1486692161.74,47243,10.13,73786.3,-8.07,-9.15,-9.01,0,*5C
1486692162.97,47244,10.13,73786.5,-8.11,-9.05,-8.97,0,*53
1486692164.19,47245,10.13,73794.8,-8.11,-8.97,-8.97,0,*58
1486692165.42,47246,10.19,73796.3,-8.11,-9.05,-8.97,0,*51
1486692166.65,47247,10.13,73794.0,-8.11,-9.05,-8.93,0,*54
1486692167.9,47248,10.13,73794.5,-8.11,-9.11,-8.97,0,*5A
1486692169.13,47249,10.13,73796.3,-8.11,-8.97,-8.97,0,*54
1486692170.35,47250,10.13,73800.5,-8.11,-8.97,-8.97,0,*5C
1486692171.58,47251,10.13,73796.3,-8.11,-9.05,-8.97,0,*57
1486692172.8,47252,10.13,73802.8,-8.11,-8.97,-8.97,0,*5E
1486692174.03,47253,10.13,73796.3,-8.11,-9.05,-8.97,0,*55
1486692175.29,47254,10.13,73796.8,-8.07,-9.15,-9.01,0,*5A
1486692176.54,47255,10.13,73796.3,-8.11,-9.19,-9.11,0,*51
1486692177.8,47256,10.19,73790.3,-8.11,-9.19,-9.11,0,*52
1486692179.05,47257,10.13,73782.5,-8.11,-9.11,-9.01,0,*5A
1486692180.28,47258,10.13,73776.3,-8.11,-8.97,-8.97,0,*54
1486692181.53,47259,10.13,73782.0,-8.11,-9.19,-9.11,0,*5D
1486692182.78,47260,10.13,73784.3,-8.07,-9.05,-9.15,0,*59
1486692184.01,47261,10.13,73788.3,-8.07,-9.19,-9.05,0,*54
1486692185.23,47262,10.19,73794.5,-8.11,-9.23,-9.19,0,*54
1486692186.46,47263,10.19,73778.0,-8.11,-9.23,-9.19,0,*55
1486692187.69,47264,10.19,73772.8,-8.07,-9.19,-9.05,0,*51
1486692188.93,47265,10.19,73784.8,-8.07,-9.19,-9.15,0,*51
1486692190.16,47266,10.19,73790.5,-8.11,-9.19,-9.19,0,*59
1486692191.42,47267,10.19,73788.5,-8.11,-9.11,-9.05,0,*5D
1486692192.64,47268,10.19,73794.8,-8.11,-8.97,-8.97,0,*57
1486692193.87,47269,10.13,73790.3,-8.11,-9.19,-9.05,0,*5B
1486692195.12,47270,10.19,73794.3,-8.11,-9.19,-9.11,0,*56
1486692196.34,47271,10.19,73788.0,-8.13,-9.27,-9.15,0,*5C
1486692197.59,47272,10.19,73794.5,-8.13,-9.37,-9.15,0,*5E
1486692198.87,47273,10.13,73790.8,-8.11,-9.11,-9.11,0,*5D
1486692200.13,47274,10.19,73796.3,-8.11,-9.11,-9.05,0,*5F
1486692201.38,47275,10.13,73788.8,-8.11,-9.19,-9.11,0,*53
1486692202.59,47276,10.13,73790.8,-8.13,-9.23,-9.01,0,*5A
1486692203.81,47277,10.13,73796.0,-8.13,-9.23,-9.11,0,*5A
1486692205.07,47278,10.13,73802.8,-8.11,-9.11,-9.05,0,*53
1486692206.29,47279,10.13,73802.8,-8.13,-9.23,-9.15,0,*50
1486692207.52,47280,10.13,73802.3,-8.11,-9.19,-8.97,0,*56
1486692208.71,47281,10.13,73796.8,-8.13,-9.27,-9.23,0,*56
1486692209.94,47282,10.13,73792.5,-8.13,-9.23,-9.15,0,*54
1486692211.19,47283,10.13,73794.0,-8.13,-9.11,-9.11,0,*50
1486692212.42,47284,10.13,73786.8,-8.13,-9.23,-9.15,0,*52
1486692213.64,47285,10.19,73798.8,-8.13,-9.23,-9.15,0,*53
1486692214.89,47286,10.19,73798.0,-8.13,-9.15,-9.15,0,*55
1486692216.12,47287,10.13,73794.8,-8.13,-9.37,-9.23,0,*51
1486692217.32,47288,10.19,73796.5,-8.13,-9.27,-9.23,0,*5F
1486692218.57,47289,10.13,73796.8,-8.11,-9.23,-9.11,0,*59
1486692219.79,47290,10.13,73788.3,-8.11,-9.31,-9.23,0,*53
1486692221.04,47291,10.19,73780.3,-8.11,-9.37,-9.23,0,*54
1486692222.27,47292,10.19,73784.3,-8.13,-9.37,-9.23,0,*55
1486692223.47,47293,10.19,73786.5,-8.13,-9.27,-9.27,0,*51
1486692224.66,47294,10.13,73788.3,-8.13,-9.27,-9.23,0,*52
1486692225.91,47295,10.19,73788.5,-8.13,-9.49,-9.37,0,*5E
1486692227.16,47296,10.13,73786.8,-8.13,-9.49,-9.37,0,*5D
1486692228.41,47297,10.13,73780.0,-8.13,-9.53,-9.41,0,*56
1486692229.69,47298,10.13,73786.5,-8.15,-9.49,-9.37,0,*55
1486692230.91,47299,10.19,73792.8,-8.13,-9.41,-9.27,0,*5B
1486692232.14,47300,10.19,73792.8,-8.13,-9.37,-9.27,0,*5B
1486692233.4,47301,10.19,73794.3,-8.13,-9.37,-9.37,0,*5B
1486692234.62,47302,10.13,73788.8,-8.13,-9.37,-9.27,0,*59
1486692235.85,47303,10.19,73790.0,-8.13,-9.37,-9.27,0,*58
1486692237.05,47304,10.13,73794.3,-8.13,-9.23,-9.19,0,*57
1486692238.27,47305,10.13,73790.0,-8.15,-9.23,-9.23,0,*59
1486692239.53,47306,10.13,73790.8,-8.13,-9.15,-9.11,0,*58
1486692240.79,47307,10.19,73788.3,-8.13,-9.15,-9.11,0,*59
1486692242.06,47308,10.19,73790.3,-8.15,-9.15,-9.01,0,*51
1486692243.29,47309,10.13,73788.3,-8.13,-9.15,-9.01,0,*56
1486692244.55,47310,10.13,73790.5,-8.13,-9.11,-9.11,0,*5B
1486692245.77,47311,10.19,73790.3,-8.13,-9.27,-9.15,0,*5B
1486692246.99,47312,10.13,73794.3,-8.13,-9.23,-9.15,0,*5C
1486692248.19,47313,10.19,73794.5,-8.13,-9.27,-9.23,0,*5C
1486692249.41,47314,10.19,73792.8,-8.13,-9.37,-9.23,0,*5A
1486692250.67,47315,10.13,73796.0,-8.13,-9.37,-9.37,0,*5E
1486692251.95,47316,10.13,73794.0,-8.15,-9.37,-9.37,0,*5B
1486692253.2,47317,10.13,73788.8,-8.13,-9.49,-9.37,0,*55
1486692254.46,47318,10.19,73792.5,-8.15,-9.37,-9.27,0,*54
1486692255.66,47319,10.13,73802.3,-8.13,-9.27,-9.23,0,*56
1486692256.88,47320,10.19,73802.3,-8.15,-9.27,-9.23,0,*5A
1486692258.16,47321,10.13,73796.8,-8.15,-9.49,-9.41,0,*57
1486692259.41,47322,10.19,73792.5,-8.13,-9.41,-9.37,0,*5B
1486692260.67,47323,10.13,73792.0,-8.13,-9.37,-9.15,0,*5B
1486692261.92,47324,10.13,73792.8,-8.15,-9.23,-9.15,0,*5F
1486692263.12,47325,10.13,73798.0,-8.13,-9.23,-9.23,0,*5D
1486692264.34,47326,10.13,73796.8,-8.13,-9.37,-9.23,0,*5B
1486692265.6,47327,10.19,73798.3,-8.15,-9.27,-9.37,0,*58
1486692266.8,47328,10.13,73794.5,-8.13,-9.27,-9.27,0,*50
1486692268.0,47329,10.19,73798.3,-8.13,-9.27,-9.23,0,*55
1486692269.25,47330,10.13,73800.8,-8.13,-9.37,-9.15,0,*59
1486692270.47,47331,10.13,73804.8,-8.13,-9.27,-9.37,0,*59
1486692271.67,47332,10.19,73804.0,-8.13,-9.27,-9.23,0,*5F
1486692272.9,47333,10.19,73804.5,-8.13,-9.15,-9.23,0,*5F
1486692274.1,47334,10.13,73796.3,-8.13,-9.27,-9.27,0,*5D
1486692275.32,47335,10.13,73794.3,-8.13,-9.23,-9.15,0,*59
1486692276.58,47336,10.13,73794.0,-8.13,-9.15,-9.11,0,*5B
1486692277.84,47337,10.19,73786.5,-8.13,-9.15,-9.15,0,*5E
1486692279.06,47338,10.13,73778.5,-8.13,-9.37,-9.27,0,*50
1486692280.32,47339,10.13,73784.0,-8.13,-9.41,-9.41,0,*50
1486692281.59,47340,10.19,73790.3,-8.15,-9.53,-9.49,0,*53
1486692282.84,47341,10.13,73784.0,-8.13,-9.53,-9.49,0,*54
1486692284.11,47342,10.13,73790.0,-8.15,-9.61,-9.53,0,*5B
1486692285.39,47343,10.13,73804.0,-8.15,-9.49,-9.41,0,*53
1486692286.62,47344,10.13,73802.3,-8.13,-9.41,-9.27,0,*5A
1486692287.84,47345,10.13,73802.5,-8.13,-9.37,-9.27,0,*5A
1486692289.07,47346,10.19,73802.5,-8.15,-9.27,-9.23,0,*5A
1486692290.29,47347,10.13,73794.3,-8.13,-9.27,-9.15,0,*58
1486692291.55,47348,10.13,73790.3,-8.15,-9.27,-9.15,0,*51
1486692292.77,47349,10.13,73794.0,-8.15,-9.27,-9.23,0,*55
1486692294.0,47350,10.13,73798.3,-8.15,-9.27,-9.27,0,*59
1486692295.23,47351,10.19,73804.0,-8.15,-9.27,-9.23,0,*5C
1486692296.46,47352,10.13,73800.5,-8.15,-9.27,-9.23,0,*5F
1486692297.69,47353,10.13,73798.3,-8.15,-9.27,-9.23,0,*5E
1486692298.96,47354,10.13,73790.5,-8.15,-9.37,-9.15,0,*5D
1486692300.22,47355,10.19,73794.8,-8.15,-9.23,-9.15,0,*59
1486692301.47,47356,10.13,73796.3,-8.15,-9.37,-9.23,0,*5A
1486692302.72,47357,10.13,73800.5,-8.17,-9.41,-9.45,0,*58
1486692303.97,47358,10.19,73800.3,-8.17,-9.45,-9.41,0,*57
1486692305.19,47359,10.13,73800.8,-8.17,-9.41,-9.31,0,*55
1486692306.45,47360,10.13,73796.5,-8.15,-9.27,-9.37,0,*5B
1486692307.74,47361,10.13,73792.8,-8.15,-9.37,-9.37,0,*5B
1486692308.98,47362,10.13,73788.8,-8.17,-9.45,-9.41,0,*5E
1486692310.23,47363,10.13,73788.0,-8.17,-9.45,-9.41,0,*5F
1486692311.48,47364,10.13,73788.8,-8.17,-9.45,-9.41,0,*58
1486692312.71,47365,10.13,73782.0,-8.17,-9.41,-9.27,0,*5D
1486692313.9,47366,10.13,73784.5,-8.17,-9.31,-9.19,0,*54
1486692315.13,47367,10.19,73788.3,-8.17,-9.41,-9.27,0,*5F
1486692316.35,47368,10.13,73782.5,-8.17,-9.45,-9.27,0,*54
1486692317.58,47369,10.13,73784.5,-8.17,-9.41,-9.27,0,*51
1486692318.83,47370,10.19,73784.5,-8.17,-9.41,-9.41,0,*59
1486692320.08,47371,10.13,73780.5,-8.17,-9.45,-9.45,0,*58
1486692321.33,47372,10.13,73780.8,-8.17,-9.53,-9.45,0,*5C
1486692322.54,47373,10.13,73784.5,-8.17,-9.45,-9.31,0,*59
1486692323.79,47374,10.13,73788.8,-8.17,-9.53,-9.41,0,*5E
1486692325.03,47375,10.19,73788.3,-8.17,-9.53,-9.41,0,*5F
1486692326.3,47376,10.13,73784.5,-8.19,-9.53,-9.41,0,*52
1486692327.57,47377,10.13,73794.3,-8.19,-9.45,-9.41,0,*54
1486692328.82,47378,10.13,73792.3,-8.17,-9.53,-9.53,0,*51
1486692330.06,47379,10.13,73788.3,-8.17,-9.53,-9.45,0,*57
1486692331.31,47380,10.13,73790.0,-8.17,-9.53,-9.45,0,*51
1486692332.51,47381,10.19,73788.5,-8.17,-9.31,-9.27,0,*50
1486692333.73,47382,10.13,73788.3,-8.19,-9.19,-9.05,0,*57
1486692334.96,47383,10.13,73790.0,-8.17,-9.27,-9.15,0,*54
1486692336.15,47384,10.13,73788.0,-8.17,-9.31,-9.31,0,*52
1486692337.39,47385,10.19,73792.3,-8.19,-9.45,-9.31,0,*5E
1486692338.64,47386,10.19,73790.3,-8.17,-9.45,-9.41,0,*54
1486692339.84,47387,10.13,73788.8,-8.17,-9.31,-9.27,0,*56
1486692341.03,47388,10.13,73786.8,-8.17,-9.31,-9.31,0,*5E
1486692342.25,47389,10.19,73790.3,-8.19,-9.31,-9.27,0,*56
1486692343.45,47390,10.13,73794.5,-8.17,-9.31,-9.31,0,*57
1486692344.72,47391,10.19,73792.5,-8.19,-9.41,-9.41,0,*58
1486692345.97,47392,10.13,73784.3,-8.17,-9.53,-9.45,0,*52
1486692347.19,47393,10.13,73786.0,-8.17,-9.67,-9.53,0,*53
1486692348.45,47394,10.13,73786.5,-8.19,-9.57,-9.57,0,*5D
1486692349.69,47395,10.13,73784.3,-8.19,-9.67,-9.57,0,*5F
1486692350.96,47396,10.13,73790.0,-8.19,-9.57,-9.53,0,*5B
1486692352.24,47397,10.13,73786.3,-8.19,-9.45,-9.45,0,*5E
1486692353.49,47398,10.19,73786.0,-8.21,-9.49,-9.45,0,*56
1486692354.74,47399,10.19,73788.0,-8.21,-9.49,-9.37,0,*52
1486692355.98,47400,10.13,73782.8,-8.19,-9.41,-9.31,0,*50
1486692357.23,47401,10.13,73784.0,-8.17,-9.45,-9.41,0,*5C
1486692358.51,47402,10.13,73780.0,-8.19,-9.45,-9.45,0,*55
1486692359.75,47403,10.13,73784.3,-8.19,-9.45,-9.31,0,*57
1486692360.96,47404,10.19,73784.0,-8.19,-9.31,-9.31,0,*53
1486692362.19,47405,10.19,73786.0,-8.19,-9.31,-9.27,0,*55
1486692363.41,47406,10.19,73784.5,-8.19,-9.27,-9.19,0,*5C
1486692364.63,47407,10.13,73782.5,-8.19,-9.27,-9.27,0,*50
1486692365.86,47408,10.19,73780.0,-8.19,-9.31,-9.27,0,*58
1486692367.06,47409,10.19,73780.5,-8.21,-9.23,-9.23,0,*55
1486692368.28,47410,10.19,73782.5,-8.19,-9.27,-9.19,0,*5B
1486692369.52,47411,10.13,73778.0,-8.19,-9.19,-9.15,0,*5B
1486692370.75,47412,10.19,73780.0,-8.19,-9.05,-9.05,0,*54
1486692371.98,47413,10.19,73782.3,-8.19,-9.19,-9.05,0,*58
1486692373.25,47414,10.19,73786.3,-8.19,-9.15,-9.15,0,*52
1486692374.48,47415,10.19,73790.3,-8.21,-9.19,-9.11,0,*50
1486692375.73,47416,10.13,73792.0,-8.19,-9.27,-9.15,0,*51
1486692377.01,47417,10.13,73792.0,-8.19,-9.15,-9.15,0,*51
1486692378.26,47418,10.19,73792.3,-8.19,-9.15,-9.05,0,*5F
1486692379.49,47419,10.19,73794.3,-8.19,-9.27,-9.19,0,*52
1486692380.71,47420,10.13,73788.5,-8.19,-9.31,-9.27,0,*52
1486692381.96,47421,10.13,73788.3,-8.19,-9.19,-9.15,0,*58
1486692383.21,47422,10.19,73788.3,-8.19,-9.15,-9.05,0,*56
1486692384.44,47423,10.13,73790.3,-8.19,-9.19,-9.05,0,*5B
1486692385.71,47424,10.19,73786.5,-8.19,-9.15,-9.15,0,*51
1486692386.94,47425,10.13,73790.8,-8.17,-9.19,-9.15,0,*52
1486692388.16,47426,10.13,73794.0,-8.17,-9.27,-9.15,0,*5C
1486692389.38,47427,10.13,73790.8,-8.19,-9.31,-9.27,0,*55
1486692390.63,47428,10.13,73786.8,-8.19,-9.41,-9.31,0,*5A
1486692391.85,47429,10.13,73788.8,-8.19,-9.31,-9.27,0,*5B
1486692393.07,47430,10.13,73794.0,-8.19,-9.27,-9.19,0,*59
1486692394.32,47431,10.19,73800.5,-8.19,-9.41,-9.19,0,*58
1486692395.54,47432,10.13,73796.0,-8.19,-9.31,-9.27,0,*51
1486692396.77,47433,10.19,73798.8,-8.19,-9.31,-9.27,0,*50
1486692397.96,47434,10.13,73798.8,-8.17,-9.31,-9.19,0,*54
1486692399.16,47435,10.13,73788.3,-8.21,-9.31,-9.23,0,*59
1486692400.36,47436,10.13,73792.5,-8.21,-9.31,-9.23,0,*5A
1486692401.59,47437,10.19,73800.3,-8.21,-9.37,-9.31,0,*5E
1486692402.8,47438,10.13,73792.3,-8.19,-9.31,-9.31,0,*5C
1486692404.07,47439,10.13,73792.8,-8.19,-9.45,-9.41,0,*59
1486692405.35,47440,10.19,73798.5,-8.19,-9.53,-9.53,0,*53
1486692406.61,47441,10.13,73788.8,-8.19,-9.57,-9.53,0,*56
1486692407.86,47442,10.13,73794.3,-8.21,-9.57,-9.45,0,*59
1486692409.11,47443,10.13,73792.0,-8.21,-9.49,-9.45,0,*57
1486692410.37,47444,10.13,73790.0,-8.21,-9.37,-9.45,0,*59
1486692411.62,47445,10.13,73792.3,-8.21,-9.45,-9.37,0,*58
1486692412.84,47446,10.13,73792.3,-8.21,-9.37,-9.31,0,*58
1486692414.06,47447,10.13,73792.3,-8.19,-9.19,-9.19,0,*54
1486692415.29,47448,10.13,73792.5,-8.19,-9.19,-9.19,0,*5B
1486692416.51,47449,10.13,73794.8,-8.21,-9.23,-9.11,0,*50
1486692417.77,47450,10.13,73794.3,-8.21,-9.11,-9.11,0,*59
1486692419.03,47451,10.13,73790.5,-8.21,-9.11,-9.11,0,*58
1486692420.29,47452,10.13,73786.0,-8.21,-9.11,-9.11,0,*5B
1486692421.52,47453,10.13,73782.8,-8.21,-9.19,-9.11,0,*52
1486692422.77,47454,10.19,73794.8,-8.21,-9.11,-9.11,0,*5D
1486692424.02,47455,10.13,73798.0,-8.19,-9.19,-9.15,0,*5B
1486692425.25,47456,10.19,73800.8,-8.21,-9.19,-9.11,0,*57
1486692426.5,47457,10.13,73796.8,-8.19,-9.15,-9.05,0,*54
1486692427.73,47458,10.13,73796.5,-8.19,-9.05,-9.05,0,*5A
1486692428.96,47459,10.19,73794.5,-8.21,-9.19,-9.11,0,*58
1486692430.19,47460,10.19,73796.3,-8.21,-9.19,-9.11,0,*52
1486692431.42,47461,10.13,73794.8,-8.17,-9.15,-9.05,0,*5F
1486692432.7,47462,10.13,73796.5,-8.19,-9.15,-9.15,0,*53
1486692433.98,47463,10.13,73796.8,-8.19,-9.15,-9.15,0,*52
1486692435.22,47464,10.13,73802.3,-8.19,-9.19,-9.15,0,*59
1486692436.48,47465,10.19,73806.8,-8.19,-9.15,-9.05,0,*55
1486692437.74,47466,10.13,73802.5,-8.19,-9.15,-9.05,0,*56
1486692438.96,47467,10.19,73810.5,-8.19,-9.05,-9.05,0,*56
1486692440.22,47468,10.13,73802.8,-8.19,-9.15,-9.05,0,*58
1486692441.5,47469,10.13,73802.8,-8.19,-9.15,-9.15,0,*58
1486692442.72,47470,10.13,73794.5,-8.19,-9.27,-9.27,0,*50
1486692443.97,47471,10.13,73800.3,-8.19,-9.27,-9.15,0,*50
1486692445.25,47472,10.13,73796.8,-8.19,-9.15,-9.15,0,*52
1486692446.52,47473,10.13,73796.0,-8.19,-9.15,-9.15,0,*53
1486692447.72,47474,10.13,73796.0,-8.21,-9.19,-9.19,0,*5F
1486692448.95,47475,10.13,73798.8,-8.21,-9.19,-9.11,0,*56
1486692450.18,47476,10.13,73796.3,-8.19,-9.05,-9.05,0,*56
1486692451.41,47477,10.13,73798.0,-8.19,-9.05,-9.05,0,*57
1486692452.66,47478,10.13,73796.5,-8.19,-9.15,-9.05,0,*59
1486692453.92,47479,10.19,73800.8,-8.19,-9.15,-9.05,0,*58
1486692455.14,47480,10.13,73794.8,-8.19,-9.05,-9.05,0,*5F
1486692456.4,47481,10.13,73790.5,-8.19,-9.15,-9.05,0,*5F
1486692457.62,47482,10.13,73790.0,-8.17,-9.19,-9.15,0,*5F
1486692458.87,47483,10.13,73788.3,-8.19,-9.19,-9.15,0,*50
1486692460.09,47484,10.13,73792.8,-8.19,-9.27,-9.27,0,*5B
1486692461.34,47485,10.19,73792.3,-8.19,-9.45,-9.27,0,*5E
1486692462.58,47486,10.19,73786.3,-8.19,-9.45,-9.31,0,*5A
1486692463.78,47487,10.13,73782.0,-8.17,-9.31,-9.27,0,*51
1486692465.05,47488,10.19,73784.3,-8.19,-9.45,-9.41,0,*53
1486692466.29,47489,10.13,73784.8,-8.19,-9.45,-9.31,0,*55
1486692467.54,47490,10.13,73778.0,-8.19,-9.45,-9.31,0,*5D
1486692468.8,47491,10.13,73784.0,-8.19,-9.53,-9.41,0,*5C
1486692470.05,47492,10.13,73786.3,-8.19,-9.67,-9.57,0,*5F
1486692471.29,47493,10.13,73790.3,-8.19,-9.71,-9.57,0,*59
1486692472.52,47494,10.13,73788.3,-8.19,-9.79,-9.71,0,*52
1486692473.76,47495,10.13,73780.3,-8.19,-9.93,-9.83,0,*5A
1486692475.0,47496,10.13,73788.8,-8.19,-9.93,-9.83,0,*59
1486692476.2,47497,10.13,73780.3,-8.21,-9.97,-9.89,0,*5D
1486692477.39,47498,10.19,73790.3,-8.21,-9.97,-9.97,0,*5D
1486692478.61,47499,10.13,73786.0,-8.23,-9.89,-9.75,0,*5D
1486692479.85,47500,10.13,73788.3,-8.23,-9.89,-9.83,0,*55
1486692481.07,47501,10.13,73782.8,-8.23,-9.89,-9.89,0,*5E
1486692482.29,47502,10.19,73784.3,-8.21,-9.83,-9.71,0,*52
1486692483.53,47503,10.13,73792.5,-8.21,-9.61,-9.57,0,*5B
1486692484.78,47504,10.13,73786.8,-8.23,-9.71,-9.57,0,*5F
1486692486.01,47505,10.19,73792.8,-8.23,-9.71,-9.71,0,*5A
1486692487.28,47506,10.13,73792.0,-8.23,-9.83,-9.83,0,*59
1486692488.48,47507,10.13,73792.3,-8.25,-9.79,-9.79,0,*5E
1486692489.71,47508,10.13,73794.3,-8.23,-9.75,-9.71,0,*53
1486692490.93,47509,10.13,73790.8,-8.23,-9.71,-9.71,0,*56
1486692492.2,47510,10.13,73790.8,-8.23,-9.83,-9.83,0,*5E
1486692493.43,47511,10.13,73784.8,-8.23,-9.75,-9.75,0,*5F
1486692494.68,47512,10.13,73786.5,-8.23,-9.71,-9.61,0,*5D
1486692495.91,47513,10.13,73786.0,-8.23,-9.75,-9.71,0,*59
1486692497.11,47514,10.19,73792.3,-8.25,-9.79,-9.67,0,*53
1486692498.31,47515,10.13,73794.0,-8.25,-9.75,-9.67,0,*5E
1486692499.51,47516,10.13,73790.3,-8.25,-9.75,-9.75,0,*5E
1486692500.7,47517,10.13,73792.8,-8.25,-9.75,-9.67,0,*5C
1486692501.9,47518,10.13,73792.5,-8.25,-9.79,-9.75,0,*5C
1486692503.15,47519,10.13,73796.8,-8.27,-9.67,-9.61,0,*55
1486692504.39,47520,10.19,73794.5,-8.25,-9.61,-9.53,0,*5A
1486692505.66,47521,10.13,73798.5,-8.27,-9.61,-9.49,0,*52
1486692506.9,47522,10.13,73800.3,-8.25,-9.53,-9.49,0,*52
1486692508.17,47523,10.19,73796.0,-8.27,-9.53,-9.41,0,*59
1486692509.41,47524,10.19,73792.5,-8.25,-9.53,-9.49,0,*54
1486692510.66,47525,10.13,73790.0,-8.25,-9.49,-9.49,0,*5E
1486692511.9,47526,10.13,73790.8,-8.25,-9.49,-9.41,0,*55